IRIDIUM 50 [-] (25172 NORAD) Tracking and Keplerian Element Data

This shows tracking and keplerian element data for the satellite.

Feedback or suggestion? Click here.




ElementValue
Catalog25172
NameIRIDIUM 50 [-]
Epoch Orbit7833
Epoch Day265.86624404
Epoch Year2018
RAAN155.8261
Inclination86.6942
Eccentricity0.00713
Argument of Perigee105.2298
Mean Anonmoly255.6905
Mean Motion16.3407755
Decay Rate0.12326199
L11 25172U 98010D 18265.86624404 .12326199 -17233-5 36382-3 0 9991
L22 25172 86.6942 155.8261 0071300 105.2298 255.6905 16.34077550 78331

Live tracking and technical data element details for IRIDIUM 50 [-] (NORAD 25172). IRIDIUM 50 [-] can be tracked NOW for your location showing map with azimuth and elevation plus other details from your city location.

Track the satellite on the map from your city or location and see movement details for azimuth, elevation, latitude, longitude, range, height, and movement on the map or in text.







IsCatalogInMostPopularTable: catalog: 25172, numindb: 52
Update: records affected: 1



GetName: 25172 IRIDIUM 50 [-]

Hit Count: updated at: Sat, 15 Dec 2018 17:56:27 GMT